Vertical_Velocity
-1 0 1 1 3 0 -1 1 -1 0 -1 -1 -1 -2 -1 -1 -0 -1 -3 -2 -3 -2 -3 -2 -3 -2 -1 0 -0 1 -1 -1 -1 -1 0 -2 4 2 -1 -5 3 -1 1 -1 2 -1 -2
-0 -0 -1 -1 1 1 -1 0 -0 -0 -1 -1 -1 -1 -1 -0 -0 -1 -2 -2 -2 -1 -2 -4 -4 -2 -3 -1 -0 0 -1 -0 -1 -2 0 1 1 -0 16 6 -1 -1 -5 1 -7 -1 -1
-0 0 -1 -1 -0 -1 -1 1 -1 0 -1 0 -2 -0 -2 -0 -1 -1 -2 -2 -2 0 -2 -3 -2 -2 -1 -1 -0 -0 -0 -2 -2 0 -0 1 -1 3 -3 0 -2 1 -5 -4 -9 -1 -11
1 -1 0 -2 -1 -1 -2 -0 0 -0 -0 -1 -1 -0 -1 -1 -0 -1 -2 -3 -3 -0 -1 -1 -2 -4 -2 -2 0 -0 0 -0 -0 -1 -1 -2 -2 -3 3 -5 2 -0 2 -4 -1 0 -7
-2 1 -1 1 -2 -1 -2 0 -0 -1 -0 -1 0 0 -1 -1 -2 -1 -1 -3 -1 -2 0 -1 -3 -4 -7 -2 -1 0 -1 -2 -2 -3 -2 0 -3 -2 -2 0 1 4 3 -8 -4 2 3
1 -0 -1 -1 -1 -2 -2 -2 -0 -1 0 -0 -1 0 -0 -1 -2 -1 -1 -2 -1 -1 1 -4 -2 -5 -2 -3 -2 -3 -2 -4 -2 1 -6 -2 1 2 0 -3 -1 -4 4 -5 10 -0 3
1 1 -0 -1 0 0 -1 -3 -2 -0 0 -1 -1 -1 -1 -0 -0 -1 -1 -2 -1 -1 -1 -0 0 -1 -3 -1 -2 -1 -0 -3 -2 -2 -4 -3 1 -2 1 1 -5 1 1 -1 14 3 3
-2 -0 1 1 -2 -1 -1 -1 -2 -2 -1 1 -0 -1 -1 -0 0 -1 1 1 -3 -0 -1 -1 -1 1 -4 -5 -1 0 0 -2 -4 1 1 -3 -1 2 5 6 5 6 5 7 1 3 0
0 -1 0 -1 -0 -1 -1 -1 -3 -3 -0 -0 -1 -1 -0 -1 0 0 -1 0 -2 -2 -1 -2 -2 -0 -2 -5 -3 -4 2 2 -1 -2 0 -2 1 6 4 8 -5 4 -2 6 5 4 3
0 -0 -0 -0 1 -0 -0 -2 -2 -3 -1 -0 -0 0 -2 -1 -1 1 -0 1 -1 -2 -1 -2 1 -5 2 -1 -6 -3 -5 -0 -1 1 0 -4 -1 -2 1 1 2 -3 -9 -2 0 4 0
2 -2 0 0 0 -1 1 0 -1 -3 -2 -1 -0 -0 -0 -2 1 -0 1 -1 1 -2 -7 1 -0 -6 -3 2 -3 -7 -4 1 2 -0 -4 -3 -2 -2 -3 -1 1 3 -9 2 -2 -2 2
2 1 -0 -0 0 -1 -1 -0 0 -0 -2 -1 -0 -0 -0 1 -2 0 1 -1 0 -2 -6 -3 -1 -1 -3 0 2 -2 -6 -3 3 1 0 -1 1 -1 -4 1 1 3 -9 1 1 -1 -3
2 1 1 -1 1 1 -0 -0 0 -0 1 -3 -1 -0 -0 -1 -1 -1 0 -0 -1 -1 -0 -2 -4 -1 -0 -3 1 3 1 -6 -4 -3 5 1 1 -2 -2 -4 -6 -2 3 -3 -5 -3 -6
-0 2 1 1 -0 2 1 -1 -1 -1 1 -0 -2 -0 -1 -1 -0 -2 -1 -3 -1 1 0 1 -1 -2 0 0 -3 1 -0 -1 -5 -6 -5 1 -3 3 3 -0 -3 -7 -3 -3 -3 -2 -3
3 -0 1 -2 0 0 2 1 -1 -1 -1 1 -1 -1 -2 -2 -1 -1 -2 -1 -2 -1 -1 -1 -0 -1 -1 1 -0 -4 2 1 3 -1 -4 -4 -2 5 6 6 6 3 1 -0 -1 0 0
1 4 4 -1 2 -1 1 2 0 -0 -1 -1 1 -1 1 -1 -3 -0 -2 1 -1 2 2 -1 -2 -1 -1 -1 1 -1 -3 1 1 2 2 -1 -6 -3 -1 4 5 2 3 -2 1 -1 -1
-5 1 2 2 1 2 -1 1 2 -1 -0 -0 -2 -1 0 -0 -1 -1 -1 -1 -2 -1 2 2 1 -1 -1 -1 -1 1 -1 -1 -1 -1 1 1 2 -2 -3 -4 -3 -5 -3 3 4 -1 -2
2 -2 -1 0 3 3 2 -1 4 1 -1 0 1 -1 -0 -1 -0 -1 0 0 0 -0 -1 0 1 2 1 -0 -1 0 1 1 -1 0 -1 -0 1 -4 2 3 3 1 1 -5 -1 0 1
1 0 -0 -0 -2 1 3 -0 2 1 2 0 -1 -1 0 -0 -2 -1 -1 -2 -1 -0 2 -2 -0 4 3 -0 -2 -1 0 2 2 -2 -0 -0 1 -4 -2 0 2 0 1 4 -2 1 1
-4 5 5 -1 5 2 2 -3 2 3 0 1 0 -1 -0 -2 2 -0 -1 -0 -2 -1 -1 3 -2 -0 2 2 0 -1 -2 -1 3 3 2 -0 0 0 -3 -1 -1 -1 0 -0 0 0 2
1 -3 -1 2 1 4 7 -3 2 0 3 2 1 -5 -0 0 -1 -1 0 -0 -1 -2 0 1 -1 0 2 1 1 -0 0 -2 -1 2 2 0 -2 -1 2 0 0 -1 1 2 -2 2 -4
-0 -2 1 1 -2 1 4 6 3 3 0 -0 -1 6 1 -3 0 4 4 -2 -2 -1 2 0 -2 2 -0 -1 4 -1 3 4 -1 -3 -0 2 -3 -3 -7 -1 -1 -4 2 1 -0 -1 -5
-5 -5 -1 -5 -0 2 1 4 2 3 3 0 0 1 3 -4 3 -4 1 5 -6 -1 -5 -1 1 -1 1 0 -1 2 1 2 3 -1 2 -2 -1 1 -5 -0 -1 -2 0 0 2 1 2
1 -1 1 1 -2 -5 -1 2 1 3 4 4 3 6 1 -13 3 3 -2 0 3 -4 -3 -1 1 0 -1 2 -1 0 1 -2 -0 3 3 -1 0 1 -4 -1 -4 1 1 0 -0 -0 0
2 2 -2 3 2 0 1 -2 2 0 2 4 4 1 5 -11 -2 -2 2 -2 0 2 -3 -3 -0 -0 1 -1 1 -3 -3 -3 -2 2 3 3 2 -2 -0 -1 -6 3 -0 -0 0 2 1
-1 -1 3 4 4 1 2 3 -3 -1 4 -0 5 2 3 5 -16 3 -2 -0 0 0 -5 -1 1 0 1 -1 5 -1 -4 1 1 -1 0 2 1 -1 0 -0 -1 1 -1 -1 -2 -3 1
-2 0 -4 -4 2 7 3 3 6 0 1 4 4 1 3 -0 -1 7 2 -4 -1 -0 -4 0 0 -2 -0 0 3 -1 -4 -1 -0 2 0 2 1 -1 3 -1 -4 3 2 -0 -3 -1 3
-2 2 2 -4 4 5 8 6 5 8 -1 1 14 1 0 -1 0 1 5 7 -2 -2 1 -2 4 -3 -1 -0 0 -1 -1 1 0 -0 1 2 2 0 1 0 -5 4 0 1 4 7 4
1 -2 -3 4 13 -1 4 6 4 -1 7 1 5 9 -0 -1 -4 0 1 -1 3 -5 2 1 -3 1 0 -1 -2 3 1 1 3 -2 1 -3 1 3 -3 5 4 -8 4 7 5 1 -0
Height
3161 3161 3161 3160 3159 3156 3154 3153 3150 3148 3146 3143 3140 3137 3134 3131 3128 3125 3123 3121 3117 3113 3108 3102 3098 3095 3092 3089 3086 3082 3080 3078 3076 3075 3073 3072 3072 3074 3074 3075 3076 3076 3077 3079 3083 3086 3089
3163 3162 3162 3160 3159 3157 3155 3153 3150 3148 3146 3143 3140 3136 3133 3130 3128 3125 3123 3121 3118 3114 3109 3103 3099 3095 3092 3090 3086 3083 3081 3078 3076 3074 3073 3072 3071 3072 3072 3073 3075 3074 3075 3078 3080 3084 3086
3164 3163 3162 3161 3159 3157 3155 3153 3151 3148 3146 3142 3140 3136 3133 3130 3127 3124 3123 3121 3119 3115 3111 3105 3101 3096 3093 3091 3086 3084 3082 3079 3077 3075 3073 3072 3072 3072 3072 3073 3073 3074 3075 3076 3078 3081 3083
3163 3163 3162 3161 3160 3157 3155 3153 3151 3148 3145 3143 3139 3136 3132 3129 3126 3124 3122 3120 3119 3115 3111 3107 3103 3098 3094 3090 3087 3085 3082 3080 3078 3076 3073 3071 3071 3072 3071 3073 3072 3072 3072 3072 3073 3078 3081
3163 3162 3162 3161 3160 3158 3155 3153 3151 3148 3145 3143 3139 3136 3132 3129 3126 3123 3122 3120 3118 3116 3112 3108 3105 3101 3095 3093 3089 3086 3083 3081 3078 3076 3074 3071 3072 3072 3072 3072 3073 3071 3070 3071 3072 3073 3080
3164 3163 3162 3161 3159 3158 3156 3154 3151 3149 3145 3142 3140 3136 3132 3129 3126 3123 3121 3120 3118 3116 3113 3110 3106 3105 3099 3095 3091 3086 3085 3083 3080 3078 3077 3075 3073 3070 3069 3072 3072 3071 3072 3070 3070 3074 3078
3164 3164 3163 3162 3159 3157 3155 3153 3151 3149 3145 3142 3139 3136 3132 3129 3125 3123 3121 3120 3120 3118 3114 3111 3109 3104 3101 3097 3094 3090 3087 3086 3083 3082 3079 3078 3077 3074 3072 3072 3072 3072 3073 3073 3074 3077 3079
3163 3163 3164 3162 3160 3157 3155 3153 3151 3149 3146 3143 3139 3136 3133 3129 3125 3123 3121 3120 3117 3118 3115 3112 3109 3105 3102 3099 3096 3093 3091 3090 3086 3084 3082 3081 3079 3078 3076 3074 3074 3073 3074 3074 3075 3076 3078
3163 3162 3162 3161 3161 3158 3156 3153 3150 3148 3146 3143 3140 3136 3133 3130 3126 3123 3121 3119 3117 3116 3116 3114 3110 3106 3104 3102 3098 3095 3093 3090 3088 3086 3085 3083 3083 3081 3079 3077 3076 3074 3075 3076 3076 3076 3077
3162 3162 3161 3160 3159 3158 3156 3153 3151 3148 3145 3143 3140 3137 3134 3130 3128 3123 3121 3118 3117 3116 3116 3116 3111 3109 3106 3102 3101 3098 3095 3094 3090 3088 3086 3086 3084 3082 3081 3079 3077 3077 3077 3077 3077 3077 3078
3160 3160 3159 3158 3158 3157 3155 3153 3150 3148 3145 3142 3140 3137 3134 3130 3128 3124 3122 3118 3116 3117 3117 3116 3112 3110 3106 3104 3103 3101 3098 3095 3092 3090 3089 3089 3086 3084 3082 3081 3079 3080 3080 3079 3079 3079 3080
3158 3158 3158 3158 3156 3155 3154 3152 3149 3146 3145 3142 3139 3137 3134 3131 3128 3125 3121 3118 3117 3118 3115 3115 3112 3110 3108 3104 3102 3101 3099 3097 3094 3091 3089 3088 3086 3085 3084 3083 3081 3081 3083 3082 3081 3082 3083
3155 3155 3155 3155 3154 3153 3152 3150 3148 3145 3143 3142 3139 3137 3134 3132 3129 3125 3122 3120 3119 3116 3118 3115 3112 3109 3107 3105 3103 3100 3099 3098 3096 3094 3090 3089 3087 3085 3084 3085 3084 3084 3084 3084 3086 3085 3084
3150 3151 3152 3151 3151 3150 3149 3149 3146 3144 3142 3140 3139 3137 3135 3132 3129 3126 3123 3122 3119 3118 3115 3113 3111 3109 3107 3105 3104 3101 3099 3098 3097 3096 3094 3090 3087 3085 3084 3084 3084 3083 3083 3083 3086 3086 3081
3145 3147 3148 3148 3148 3147 3146 3146 3145 3142 3140 3138 3137 3136 3134 3132 3129 3127 3125 3122 3121 3118 3116 3113 3110 3108 3107 3105 3104 3102 3100 3098 3096 3096 3096 3092 3089 3086 3084 3082 3083 3082 3082 3082 3080 3080 3079
3139 3141 3143 3144 3143 3144 3143 3142 3142 3140 3139 3137 3135 3134 3133 3131 3129 3127 3126 3123 3121 3118 3115 3112 3110 3109 3107 3105 3103 3101 3100 3099 3096 3094 3092 3093 3090 3088 3086 3084 3083 3083 3083 3082 3080 3081 3079
3133 3134 3137 3138 3138 3139 3139 3138 3138 3137 3136 3134 3133 3132 3131 3129 3128 3127 3124 3122 3120 3118 3116 3114 3110 3108 3106 3104 3103 3101 3101 3100 3097 3095 3093 3092 3091 3089 3087 3085 3085 3085 3084 3082 3080 3081 3081
3126 3128 3129 3131 3133 3133 3134 3134 3134 3133 3132 3131 3130 3129 3128 3127 3127 3124 3123 3121 3119 3117 3115 3113 3110 3107 3105 3103 3102 3101 3099 3097 3096 3095 3093 3092 3089 3086 3085 3083 3082 3083 3083 3083 3082 3081 3079
3115 3117 3121 3123 3125 3127 3129 3128 3129 3129 3127 3127 3126 3125 3124 3124 3123 3122 3120 3119 3116 3114 3113 3111 3110 3107 3105 3103 3103 3100 3098 3097 3094 3093 3092 3091 3089 3086 3083 3084 3082 3081 3081 3081 3080 3078 3076
3106 3108 3109 3113 3117 3119 3121 3123 3123 3123 3123 3123 3123 3121 3120 3119 3119 3118 3117 3116 3114 3112 3110 3108 3107 3106 3104 3101 3100 3098 3097 3096 3094 3092 3091 3090 3088 3087 3086 3084 3082 3081 3080 3079 3079 3078 3075
3094 3097 3101 3103 3106 3110 3112 3114 3116 3117 3117 3118 3117 3116 3116 3115 3114 3114 3113 3112 3111 3109 3107 3105 3103 3103 3102 3100 3098 3096 3094 3094 3093 3091 3089 3088 3086 3084 3082 3080 3077 3075 3075 3075 3075 3075 3074
3080 3085 3088 3092 3096 3100 3103 3105 3105 3108 3110 3111 3111 3111 3111 3110 3110 3110 3108 3107 3107 3105 3104 3100 3100 3099 3099 3097 3097 3095 3093 3092 3090 3089 3088 3087 3084 3081 3077 3075 3073 3070 3070 3069 3068 3069 3068
3064 3069 3075 3079 3083 3087 3092 3095 3097 3098 3101 3100 3103 3104 3104 3104 3104 3105 3104 3102 3101 3100 3099 3096 3096 3094 3093 3093 3092 3091 3089 3088 3087 3086 3085 3083 3082 3080 3074 3073 3071 3067 3065 3064 3063 3065 3066
3046 3052 3058 3065 3070 3076 3080 3083 3087 3089 3091 3092 3094 3096 3096 3095 3097 3097 3098 3097 3096 3095 3093 3092 3091 3090 3090 3089 3087 3087 3085 3083 3082 3080 3079 3078 3079 3079 3073 3072 3071 3066 3064 3064 3064 3064 3064
3029 3034 3041 3048 3055 3061 3068 3072 3075 3077 3082 3083 3085 3086 3087 3086 3089 3091 3091 3091 3090 3088 3087 3086 3085 3085 3084 3084 3083 3081 3079 3077 3075 3073 3072 3073 3074 3075 3074 3071 3068 3064 3064 3063 3062 3063 3063
3016 3018 3023 3030 3039 3046 3053 3060 3064 3066 3069 3073 3077 3077 3078 3079 3080 3083 3083 3084 3084 3083 3082 3080 3080 3079 3079 3079 3079 3077 3076 3074 3071 3070 3068 3069 3070 3073 3071 3071 3066 3063 3063 3064 3063 3063 3062
2999 3004 3007 3012 3021 3029 3037 3043 3050 3054 3058 3062 3065 3068 3070 3069 3073 3076 3074 3075 3076 3076 3075 3074 3073 3073 3074 3073 3073 3072 3072 3071 3069 3066 3066 3066 3067 3067 3068 3067 3064 3062 3062 3063 3064 3068 3063
2985 2990 2993 2999 3008 3014 3023 3029 3036 3040 3046 3050 3055 3058 3060 3060 3064 3066 3067 3067 3067 3069 3068 3070 3070 3067 3068 3069 3069 3067 3066 3064 3063 3063 3063 3065 3065 3064 3065 3065 3064 3062 3062 3065 3065 3062 3061
2976 2978 2982 2990 2999 3004 3009 3016 3024 3029 3033 3038 3043 3047 3050 3052 3055 3057 3059 3060 3060 3062 3063 3061 3063 3062 3061 3061 3062 3062 3061 3059 3059 3059 3060 3063 3064 3065 3066 3063 3061 3060 3060 3059 3056 3055 3053